When you browse on this site, cookies collect data to enhance your experience and personalize the content and advertising you see.
Visit our Privacy Policy to learn more. By continuing to use the site, you agree to this use of cookies and data.

Stündliche Wetter 1-e Itkulovo

Heute, 9 August, Sonntag

Zeit Temperatur Niederschläge Wind Luftdruck Luftfeuchtigkeit
00:00 +17°C° 0.3 mm 3 m/S 704 mmHg 93%
01:00 +16°C° 0.3 mm 3 m/S 703 mmHg 95%
02:00 +16°C° 0.8 mm 3 m/S 703 mmHg 96%
03:00 +16°C° 0.8 mm 3 m/S 703 mmHg 96%
04:00 +16°C° 0 mm 3 m/S 703 mmHg 96%
05:00 +16°C° 1.4 mm 2 m/S 703 mmHg 96%
06:00 +16°C° 1.4 mm 2 m/S 703 mmHg 95%
07:00 +16°C° 1.4 mm 2 m/S 703 mmHg 95%
08:00 +17°C° 0.5 mm 2 m/S 703 mmHg 90%
09:00 +18°C° 0.5 mm 2 m/S 703 mmHg 84%
10:00 +19°C° 0.5 mm 2 m/S 703 mmHg 78%
11:00 +20°C° 0.6 mm 3 m/S 703 mmHg 78%
12:00 +20°C° 0.6 mm 3 m/S 703 mmHg 78%
13:00 +20°C° 0.6 mm 3 m/S 702 mmHg 78%
14:00 +20°C° 0.7 mm 4 m/S 702 mmHg 78%
15:00 +20°C° 0.7 mm 4 m/S 702 mmHg 77%
16:00 +20°C° 0.7 mm 5 m/S 702 mmHg 77%
17:00 +17°C° 0.1 mm 5 m/S 702 mmHg 80%
18:00 +17°C° 0.1 mm 4 m/S 702 mmHg 82%
19:00 +15°C° 0.1 mm 4 m/S 701 mmHg 85%
20:00 +14°C° 0 mm 4 m/S 701 mmHg 88%
21:00 +13°C° 0 mm 4 m/S 701 mmHg 91%
22:00 +12°C° 0 mm 3 m/S 700 mmHg 95%
23:00 +12°C° 0 mm 3 m/S 700 mmHg 95%

Morgen, 10 August, Montag

Zeit Temperatur Niederschläge Wind Luftdruck Luftfeuchtigkeit
00:00 +12°C° 0 mm 3 m/S 700 mmHg 95%
01:00 +12°C° 0 mm 3 m/S 700 mmHg 96%
02:00 +13°C° 0.2 mm 3 m/S 700 mmHg 96%
03:00 +13°C° 0.2 mm 3 m/S 700 mmHg 95%
04:00 +13°C° 0.2 mm 3 m/S 700 mmHg 95%
05:00 +13°C° 1.2 mm 3 m/S 699 mmHg 96%
06:00 +13°C° 1.2 mm 4 m/S 699 mmHg 96%
07:00 +13°C° 1.2 mm 4 m/S 699 mmHg 96%
08:00 +13°C° 2.4 mm 5 m/S 700 mmHg 96%
09:00 +13°C° 2.4 mm 6 m/S 700 mmHg 95%
10:00 +12°C° 2.4 mm 7 m/S 700 mmHg 95%
11:00 +14°C° 0.3 mm 7 m/S 700 mmHg 93%
12:00 +14°C° 0.3 mm 7 m/S 701 mmHg 91%
13:00 +14°C° 0.3 mm 7 m/S 701 mmHg 88%
14:00 +14°C° 0 mm 7 m/S 701 mmHg 88%
15:00 +12°C° 0 mm 7 m/S 701 mmHg 88%
16:00 +12°C° 0 mm 7 m/S 702 mmHg 88%
17:00 +12°C° 0 mm 7 m/S 702 mmHg 88%
18:00 +12°C° 0 mm 8 m/S 702 mmHg 89%
19:00 +12°C° 0 mm 8 m/S 702 mmHg 89%
20:00 +12°C° 0 mm 7 m/S 702 mmHg 88%
21:00 +12°C° 0 mm 7 m/S 702 mmHg 88%
22:00 +12°C° 0 mm 7 m/S 703 mmHg 88%
23:00 +12°C° 0 mm 7 m/S 703 mmHg 89%

übermorgen, 11 August, Dienstag

Zeit Temperatur Niederschläge Wind Luftdruck Luftfeuchtigkeit
00:00 +13°C° 0 mm 6 m/S 703 mmHg 90%
01:00 +13°C° 0 mm 6 m/S 703 mmHg 91%
02:00 +13°C° 0 mm 6 m/S 703 mmHg 91%
03:00 +13°C° 0 mm 6 m/S 704 mmHg 90%
04:00 +13°C° 0 mm 6 m/S 704 mmHg 90%
05:00 +13°C° 0 mm 6 m/S 704 mmHg 91%
06:00 +13°C° 0 mm 6 m/S 704 mmHg 91%
07:00 +13°C° 0 mm 5 m/S 705 mmHg 92%
08:00 +14°C° 0 mm 6 m/S 705 mmHg 89%
09:00 +14°C° 0 mm 6 m/S 705 mmHg 87%
10:00 +15°C° 0 mm 6 m/S 706 mmHg 85%
11:00 +15°C° 0 mm 6 m/S 706 mmHg 83%
12:00 +16°C° 0 mm 6 m/S 707 mmHg 81%
13:00 +16°C° 0 mm 5 m/S 707 mmHg 79%
14:00 +16°C° 0 mm 6 m/S 707 mmHg 79%
15:00 +16°C° 0 mm 6 m/S 707 mmHg 79%
16:00 +16°C° 0 mm 6 m/S 708 mmHg 79%
17:00 +15°C° 0 mm 6 m/S 708 mmHg 81%
18:00 +14°C° 0 mm 6 m/S 708 mmHg 83%
19:00 +14°C° 0 mm 5 m/S 709 mmHg 84%
20:00 +13°C° 0 mm 5 m/S 709 mmHg 86%
21:00 +12°C° 0 mm 4 m/S 709 mmHg 88%
22:00 +12°C° 0 mm 4 m/S 709 mmHg 90%
23:00 +11°C° 0 mm 3 m/S 709 mmHg 92%

12 August, Mittwoch

Zeit Temperatur Niederschläge Wind Luftdruck Luftfeuchtigkeit
00:00 +10°C° 0 mm 3 m/S 709 mmHg 94%
01:00 +10°C° 0 mm 2 m/S 709 mmHg 96%
02:00 +10°C° 0 mm 2 m/S 709 mmHg 95%
03:00 +10°C° 0 mm 2 m/S 709 mmHg 93%
04:00 +10°C° 0 mm 2 m/S 710 mmHg 92%
05:00 +12°C° 0 mm 2 m/S 710 mmHg 90%
06:00 +12°C° 0 mm 2 m/S 710 mmHg 87%
07:00 +13°C° 0 mm 2 m/S 711 mmHg 85%
08:00 +15°C° 0 mm 2 m/S 711 mmHg 76%
09:00 +17°C° 0 mm 3 m/S 711 mmHg 66%
10:00 +18°C° 0 mm 3 m/S 711 mmHg 57%
11:00 +19°C° 0 mm 3 m/S 711 mmHg 54%
12:00 +20°C° 0 mm 2 m/S 712 mmHg 51%
13:00 +21°C° 0 mm 2 m/S 712 mmHg 48%
14:00 +21°C° 0 mm 2 m/S 712 mmHg 48%
15:00 +21°C° 0 mm 2 m/S 712 mmHg 48%
16:00 +22°C° 0 mm 1 m/S 712 mmHg 49%
17:00 +21°C° 0 mm 1 m/S 712 mmHg 56%
18:00 +19°C° 0 mm 1 m/S 712 mmHg 63%
19:00 +18°C° 0 mm 1 m/S 712 mmHg 70%
20:00 +16°C° 0 mm 1 m/S 712 mmHg 73%
21:00 +14°C° 0 mm 1 m/S 712 mmHg 76%
22:00 +13°C° 0 mm 1 m/S 712 mmHg 79%
23:00 +13°C° 0 mm 1 m/S 712 mmHg 80%

13 August, Donnerstag

Zeit Temperatur Niederschläge Wind Luftdruck Luftfeuchtigkeit
00:00 +12°C° 0 mm 1 m/S 712 mmHg 81%
01:00 +12°C° 0 mm 1 m/S 712 mmHg 82%
02:00 +12°C° 0 mm 1 m/S 712 mmHg 83%
03:00 +12°C° 0 mm 1 m/S 712 mmHg 84%
04:00 +11°C° 0 mm 1 m/S 712 mmHg 84%
05:00 +12°C° 0 mm 1 m/S 712 mmHg 83%
06:00 +14°C° 0 mm 2 m/S 712 mmHg 81%
07:00 +15°C° 0 mm 2 m/S 712 mmHg 79%
08:00 +16°C° 0 mm 2 m/S 712 mmHg 75%
09:00 +18°C° 0 mm 3 m/S 712 mmHg 71%
10:00 +19°C° 0 mm 4 m/S 712 mmHg 66%
11:00 +20°C° 0.1 mm 4 m/S 712 mmHg 64%
12:00 +20°C° 0.1 mm 4 m/S 712 mmHg 62%
13:00 +21°C° 0.1 mm 4 m/S 712 mmHg 60%
14:00 +21°C° 0.1 mm 4 m/S 712 mmHg 59%
15:00 +21°C° 0.1 mm 4 m/S 711 mmHg 59%
16:00 +21°C° 0.1 mm 4 m/S 711 mmHg 58%
17:00 +20°C° 0.1 mm 3 m/S 711 mmHg 64%
18:00 +19°C° 0.1 mm 2 m/S 710 mmHg 69%
19:00 +18°C° 0.1 mm 1 m/S 710 mmHg 75%
20:00 +16°C° 0 mm 1 m/S 710 mmHg 76%
21:00 +16°C° 0 mm 1 m/S 710 mmHg 77%
22:00 +15°C° 0 mm 1 m/S 710 mmHg 79%
23:00 +15°C° 0 mm 2 m/S 710 mmHg 80%

14 August, Freitag

Zeit Temperatur Niederschläge Wind Luftdruck Luftfeuchtigkeit
00:00 +14°C° 0 mm 2 m/S 709 mmHg 82%
01:00 +14°C° 0 mm 2 m/S 709 mmHg 83%
02:00 +14°C° 0 mm 2 m/S 709 mmHg 83%
03:00 +13°C° 0 mm 3 m/S 709 mmHg 82%
04:00 +12°C° 0 mm 3 m/S 708 mmHg 81%
05:00 +13°C° 0.2 mm 3 m/S 708 mmHg 83%
06:00 +14°C° 0.2 mm 2 m/S 708 mmHg 85%
07:00 +14°C° 0.2 mm 2 m/S 708 mmHg 87%
08:00 +15°C° 0.3 mm 2 m/S 708 mmHg 86%
09:00 +16°C° 0.3 mm 3 m/S 708 mmHg 84%
10:00 +17°C° 0.3 mm 3 m/S 708 mmHg 83%
11:00 +18°C° 0.1 mm 3 m/S 708 mmHg 77%
12:00 +19°C° 0.1 mm 4 m/S 708 mmHg 72%
13:00 +21°C° 0.1 mm 4 m/S 708 mmHg 66%
14:00 +20°C° 0.7 mm 4 m/S 708 mmHg 69%
15:00 +20°C° 0.7 mm 4 m/S 708 mmHg 72%
16:00 +19°C° 0.7 mm 4 m/S 708 mmHg 75%
17:00 +18°C° 0.3 mm 3 m/S 707 mmHg 78%
18:00 +17°C° 0.3 mm 3 m/S 707 mmHg 81%
19:00 +16°C° 0.3 mm 2 m/S 707 mmHg 85%
20:00 +15°C° 0 mm 2 m/S 707 mmHg 87%
21:00 +13°C° 0 mm 2 m/S 707 mmHg 89%
22:00 +12°C° 0 mm 2 m/S 707 mmHg 91%
23:00 +12°C° 0 mm 2 m/S 707 mmHg 91%
Mehr zeigen